This is the latest recevied weather packets stored in our database for station/object OE3FJB-25. If no packets are shown the sender has not sent any weather packets the latest 10 day(s).
| Time | Temp. | Humidity | Pressure | Rain* | Wind** | Luminosity | Snow |
|---|---|---|---|---|---|---|---|
| 1777529845 | 2.78° C | 77% | 1031.1 hPa | - | - | - | - |
| 1777529243 | 2.22° C | 84% | 1031 hPa | - | - | - | - |
| 1777528644 | 1.67° C | 86% | 1030.8 hPa | - | - | - | - |
| 1777528048 | 1.67° C | 88% | 1030.7 hPa | - | - | - | - |
| 1777527443 | 1.11° C | 88% | 1030.7 hPa | - | - | - | - |
| 1777526844 | 1.11° C | 88% | 1030.7 hPa | - | - | - | - |
| 1777526279 | 1.11° C | 88% | 1030.7 hPa | - | - | - | - |
| 1777526246 | 1.11° C | 88% | 1030.7 hPa | - | - | - | - |
| 1777525643 | 0.56° C | 88% | 1030.8 hPa | - | - | - | - |
| 1777525044 | 0.56° C | 88% | 1030.8 hPa | - | - | - | - |
| 1777524445 | 0.56° C | 90% | 1030.6 hPa | - | - | - | - |
| 1777523843 | 0° C | 90% | 1030.6 hPa | - | - | - | - |
| 1777522646 | 0° C | 93% | 1030.3 hPa | - | - | - | - |
| 1777522043 | 0° C | 94% | 1030.3 hPa | - | - | - | - |
| 1777521444 | -0.56° C | 95% | 1030.3 hPa | - | - | - | - |
| 1777520846 | -1.11° C | 95% | 1030.2 hPa | - | - | - | - |
| 1777520243 | -0.56° C | 94% | 1030.2 hPa | - | - | - | - |
| 1777519644 | -0.56° C | 95% | 1030.1 hPa | - | - | - | - |
| 1777519045 | -1.11° C | 95% | 1030.1 hPa | - | - | - | - |
| 1777518443 | -0.56° C | 94% | 1030.1 hPa | - | - | - | - |
| 1777517844 | -0.56° C | 95% | 1030 hPa | - | - | - | - |
| 1777517246 | -1.11° C | 98% | 1029.9 hPa | - | - | - | - |
| 1777516643 | -1.67° C | 98% | 1030 hPa | - | - | - | - |
| 1777516044 | -1.11° C | 97% | 1030 hPa | - | - | - | - |
| 1777515445 | -1.11° C | 96% | 1029.8 hPa | - | - | - | - |
* Rain since midnight (hover to see other rain measurements)
** Current wind speed in m/s (hover to see current wind gust speed)